Current Weather Conditions: station MHPA1

sailwx.info

Wind from 190 at 8 knots

Air temperature 30.5° C

Last reported at 2019-Jul-18 20:30 UTC.
Time now 2019-Jul-18 21:21 UTC

Location: N 30°40' W 087°56'.
View on Google Maps.

See reports from other nearby stations

  
Tides and Currents Weather Stations Pressure Air Temp Water Temp Dewpoint Dewpoint Depression Visibility Wind Speed Wind Dir Waves Ship Positions
date/time (UTC)wind fromknots sea level pressurealtimeterstation pressurevisibilityair tempwater tempwave heightnotes
2019-Jul-18 20:30 190 8 30.5
2019-Jul-18 20:00 180 11 30.3
2019-Jul-18 19:30 180 8 30.2
2019-Jul-18 19:00 180 7 30.3
2019-Jul-18 18:30 170 6 30.5
2019-Jul-18 18:00 160 5 30.4
2019-Jul-18 17:30 180 1 30.1
2019-Jul-18 17:00 29.5
2019-Jul-18 16:30 180 1 29.2
2019-Jul-18 16:00 190 4 28.9
2019-Jul-18 15:30 180 1 28.7
2019-Jul-18 15:00 230 0 28.9
2019-Jul-18 14:30 290 0 28.7
2019-Jul-18 14:00 28.3
2019-Jul-18 13:30 27.9
2019-Jul-18 13:00 300 2 27.5
2019-Jul-18 12:30 310 0 27.0
2019-Jul-18 12:00 26.8
2019-Jul-18 11:30 26.1
2019-Jul-18 11:00 26.3
2019-Jul-18 10:30 26.3
2019-Jul-18 10:00 26.5
2019-Jul-18 09:30 26.8
2019-Jul-18 09:00 27.2
2019-Jul-18 08:30 27.2
2019-Jul-18 08:00 27.4
2019-Jul-18 07:30 27.7
2019-Jul-18 07:00 270 2 28.6
2019-Jul-18 06:30 220 6 29.0
2019-Jul-18 06:00 210 6 29.1
2019-Jul-18 05:30 220 6 29.3
2019-Jul-18 05:00 210 6 29.3
2019-Jul-18 04:30 210 6 29.4
2019-Jul-18 04:00 200 6 29.3
2019-Jul-18 03:30 200 7 29.4
2019-Jul-18 03:00 210 6 29.5
2019-Jul-17 15:30 28.1
2019-Jul-17 15:00 200 0 27.9
2019-Jul-17 14:30 27.8
2019-Jul-17 14:00 240 0 27.7
2019-Jul-17 13:30 27.6
2019-Jul-17 13:00 270 4 27.2
2019-Jul-17 12:30 27.2
2019-Jul-17 12:00 27.2
2019-Jul-17 11:30 250 2 27.0
2019-Jul-17 11:00 230 4 27.6
2019-Jul-17 10:30 220 6 27.6
2019-Jul-17 10:00 220 6 27.7
2019-Jul-17 09:30 230 6 27.8
2019-Jul-17 09:00 210 6 27.8
2019-Jul-17 08:30 220 6 27.9
2019-Jul-17 08:00 200 7 28.1
2019-Jul-17 07:30 210 6 28.2
2019-Jul-17 07:00 190 6 28.2
2019-Jul-17 06:30 190 6 28.4
2019-Jul-17 06:00 160 5 27.8
2019-Jul-17 05:30 140 1 27.4
2019-Jul-17 05:00 130 2 27.3
2019-Jul-17 04:30 130 2 27.6
2019-Jul-17 04:00 130 2 27.8
2019-Jul-17 03:30 170 6 28.7
2019-Jul-17 03:00 180 6 28.7
2019-Jul-17 02:30 190 6 28.9
2019-Jul-17 02:00 180 6 28.9
2019-Jul-17 01:30 180 7 28.9
2019-Jul-17 01:00 170 7 29.0
2019-Jul-17 00:30 180 7 29.2
2019-Jul-17 00:00 180 8 29.2
2019-Jul-16 23:30 180 8 29.3
2019-Jul-16 23:00 170 11 29.4
2019-Jul-16 22:30 180 9 29.1
2019-Jul-16 22:00 170 11 29.3
2019-Jul-16 21:30 170 9 29.3
2019-Jul-16 21:00 170 9 29.1